Location: Poughquag
(41.6090°N, 73.6820°W)
Time: 01:33:03
(UTC-04:00)

Transit 2A - Pass Details

Date: 08 December 2023
Orbit: 592 x 959 km, 66.7° (Epoch: 22 June)

Event Time Altitude Azimuth Distance (km) Brightness Sun altitude
Rises 23:40:15 0° 326° (NW) 2,834 - -71.1°
Reaches altitude 10° 23:42:29 10° 322° (NW) 1,934 - -71.2°
Maximum altitude 23:46:44 59° 243° (WSW) 705 - -71.2°
Drops below altitude 10° 23:51:09 10° 164° (SSE) 2,018 - -71.2°
Sets 23:53:31 0° 161° (SSE) 2,970 - -71.1°
